Loisir ou Compétition : Rejoignez un Club de la Fédération

Résultats

Grand Prix de la Ville d'Annecy

SEMNOZ

MASS Hommes

Jury de Compétition

Délégué Technique :
ROGUET MATHIEU (MB)
D.T. Adjoint :
 
Dir. Epreuve :
DOMENGE ALEXANDRE (MB)

Caractéristiques de la Piste

Piste :
Plateau
Distance :
5 km
Point Haut :
 
Point Bas :
 
Montée Tot. :
 
Montée Max. :
 
Homologation :
 

Pénalité Appliquée :
 
Coefficient :
 

Catégorie :
U15
Style :
L
Clt Dos Clt/Cat Code An Nom Prénom Com Club Temps Ecart Points
Classés
1 257 1/U15 FFS2686938 2005 VALLEIX JORIS MB SCNP ROCHOIS 12:25.9 00:00.0
2 258 2/U15 FFS2676910 2005 CLAVEL SIMON MB CS LA CLUSAZ 12:39.9 00:14.0
3 255 3/U15 FFS2686681 2005 DELOCHE LINO MB SC GD BORNAN 12:42.7 00:16.8
4 264 4/U15 FFS2686695 2005 PERRILLAT BOTTONET JUDICA MB SC GD BORNAN 12:44.1 00:18.2
5 259 5/U15 FFS2686242 2005 VIGUIER QUENTIN MB CS LA CLUSAZ 12:45.4 00:19.5
6 260 6/U15 FFS2686663 2005 PERRILLAT BOITEUX ANTHONY MB SC GD BORNAN 12:46.0 00:20.1
7 267 7/U15 FFS2686542 2005 PEYRET TILIEN MB DRAGONS ANNY 12:56.9 00:31.0
8 262 8/U15 FFS2671565 2005 COLOMBAN ALEXIS MB SCNP ROCHOIS 12:58.6 00:32.7
9 261 9/U15 FFS2667744 2005 BIZZOCCHI ESTEBAN MB SC D'AGY 12:59.1 00:33.2
10 266 10/U15 FFS2666324 2005 FAVRE FELIX KILLIAN MB SC GD BORNAN 13:11.8 00:45.9
11 265 11/U15 FFS2686793 2005 MARIE ADELIN MB SC D'AGY 13:15.9 00:50.0
12 268 12/U15 FFS2666342 2005 OUVRIER BUFFET JULES MB CS LA CLUSAZ 13:21.8 00:55.9
13 270 13/U15 FFS2686538 2005 JOMIER LOIS MB DRAGONS ANNY 13:35.7 01:09.8
14 263 14/U15 FFS2681171 2005 LUZET HUGO MB CS LA CLUSAZ 13:38.8 01:12.9
15 271 15/U15 FFS2686539 2005 LACROIX MATTHIAS MB DRAGONS ANNY 13:40.6 01:14.7
16 274 16/U15 FFS2686543 2005 ROMERI NATHAN MB DRAGONS ANNY 13:41.6 01:15.7
17 273 17/U15 FFS2692554 2005 ZAVARISE NOAH MB CNG 13:44.6 01:18.7
18 276 18/U15 FFS2696236 2005 MONGELLAZ JULES MB SC CONTAMINE 13:46.2 01:20.3
19 277 19/U15 FFS2687102 2005 SYLVESTRE BARON PAUL MB SCNP ROCHOIS 14:05.5 01:39.6
20 269 20/U15 FFS2686795 2005 DELERCE THIBAULT MB SC D'AGY 14:07.3 01:41.4
21 279 21/U15 FFS2687034 2005 FIVEL DEMORET HUGO MB SC CONTAMINE 14:09.2 01:43.3
22 284 22/U15 FFS2680344 2005 DELERCE GASPARD MB LES GETS S.C 14:11.2 01:45.3
23 275 23/U15 FFS2688043 2005 MAGNIEZ OSCAR MB DRAGONS ANNY 14:15.9 01:50.0
24 287 24/U15 FFS2682301 2005 BORNE GABRIEL FZ BESSAT S HIV 14:17.9 01:52.0
25 278 25/U15 FFS2686940 2005 LEVET PROSPER MB SCNP ROCHOIS 14:23.2 01:57.3
26 289 26/U15 FFS2691613 2005 MICHEL ROBIN AU CN ST JULIEN 14:31.7 02:05.8
27 272 27/U15 FFS2692552 2005 PETROD BASTIEN MB CNG 14:41.4 02:15.5
28 288 28/U15 FFS2692182 2005 FRAISSE PIERRE AU CN ST JULIEN 14:50.2 02:24.3
29 283 29/U15 FFS2676738 2005 CHETAIL JULES MB CS MEGEVE 15:03.8 02:37.9
30 290 30/U15 FFS2678050 2005 PRADAT ELY AU SC DE BESSE 15:19.3 02:53.4
31 280 31/U15 FFS2681304 2005 PERSONNAZ LOAN MB DRAGONS ANNY 15:29.2 03:03.3
32 286 32/U15 FFS2688678 2005 REPELLIN CHARLES MB VILLARD/BOEG 15:30.9 03:05.0
33 285 33/U15 FFS2687856 2005 VEISY KILLIAN MB EN HT GIFFRE 15:37.6 03:11.7
34 281 34/U15 FFS2686260 2005 BOSSUT AUGUSTIN MB PRAZ LYS-SOM 15:46.9 03:21.0
35 405 35/U15 FFS2675724 2005 LOCATELLI MATHEO LY SC BRENOD 17:06.6 04:40.7
Non partants
282 FFS2690844 2005 HAEBERLI ARTHUR MB CS LA CLUSAZ